Regional Weather Roundup
Issued by NWS Sioux Falls, SD

Home | Current Version | Previous Version | Graphics & Text | Print | Product List | Glossary Off
Versions: 1 2 3 4 5 6 7 8 9 10 11 12 13 14 15 16 17 18 19 20 21 22 23 24 25 26 27 28 29 30 31 32 33 34 35 36 37 38 39 40 41 42 43 44 45 46 47 48 49 50

000
ASUS43 KFSD 300302
RWRFSD

WEATHER ROUNDUP FOR SE SOUTH DAKOTA/SW MINNESOTA/NW IOWA
NATIONAL WEATHER SERVICE SIOUX FALLS SD
1000 PM CDT SUN MAR 29 2015

NOTE: "FAIR" INDICATES FEW OR NO CLOUDS BELOW 12,000 FEET WITH NO
SIGNIFICANT WEATHER AND OR OBSTRUCTIONS TO VISIBILITY.


SDZ038>040-050-052>070-300400-
SOUTHEAST SOUTH DAKOTA

CITY           SKY/WX    TMP DP  RH WIND       PRES   REMARKS
CHAMBERLAIN    NOT AVBL
HURON          CLEAR     43  22  43 SW5       30.02F
MADISON        FAIR      41  19  42 W6        30.04S
MITCHELL       CLEAR     46  23  40 SW7       30.05F
SIOUX FALLS    CLEAR     36  22  56 CALM      30.05S
WINNER         FAIR      54  21  27 SW6       30.07S
YANKTON        CLEAR     50  19  29 SW9       30.09S
$$

MNZ071-072-080-081-089-090-097-098-300400-
SOUTHWEST MINNESOTA

CITY           SKY/WX    TMP DP  RH WIND       PRES   REMARKS
FAIRMONT       CLEAR     43  19  39 W10       30.02R
JACKSON        CLEAR     43  23  45 NW8       30.04S
LUVERNE        CLEAR     37  21  52 CALM      30.06R
MARSHALL       CLEAR     41  23  48 W10       30.02S
MONTEVIDEO     CLEAR     43  27  52 W3        30.00S
PIPESTONE      CLEAR     41  21  45 CALM      30.04S
REDWOOD FALLS  CLEAR     44  26  49 W7        30.00R
TRACY          CLEAR     42  26  52 W6        30.02S
WINDOM         CLEAR     39  25  56 W7        30.03S
WORTHINGTON    CLEAR     37  19  48 W7        30.06R
$$

IAZ001>003-012>014-020>022-031-032-NEZ013-014-SDZ071-300400-
NORTHWEST IOWA

CITY           SKY/WX    TMP DP  RH WIND       PRES   REMARKS
DENISON        CLEAR     43  23  45 CALM      30.08S
ESTHERVILLE    CLEAR     38  25  59 W10       30.04R
SIOUX CITY     CLEAR     42  20  41 W5        30.10R
SPENCER        CLEAR     35  24  64 NW6       30.07R
$$

ABBREVIATIONS USED IN REMARKS
   TC - TEMPERATURE IN CELSIUS
  WCI - WIND CHILL INDEX
   HX - HEAT INDEX
  VSB - VISIBILITY




USA.gov is the U.S. government's official web portal to all federal, state and local government web resources and services.